EDT,Max TemperatureF,Mean TemperatureF,Min TemperatureF,Max Dew PointF,MeanDew PointF,Min DewpointF,Max Humidity, Mean Humidity, Min Humidity, Max Sea Level PressureIn, Mean Sea Level PressureIn, Min Sea Level PressureIn, Max VisibilityMiles, Mean VisibilityMiles, Min VisibilityMiles, Max Wind SpeedMPH, Mean Wind SpeedMPH, Max Gust SpeedMPH,PrecipitationIn, CloudCover, Events, WindDirDegrees
2013-10-1,73,64,55,59,55,52,94,76,50,30.11,30.07,30.04,10,8,1,14,6,18,0.00,3,,227
2013-10-2,77,66,55,63,57,54,94,79,57,30.14,30.10,30.06,10,9,0,12,6,16,0.00,3,,243
2013-10-3,75,63,51,64,57,48,94,87,69,30.15,30.11,30.06,10,7,0,12,3,,0.53,5,Thunderstorm,154
2013-10-4,80,70,60,66,62,59,94,85,54,30.13,30.10,30.07,10,7,0,12,6,18,0.12,4,Thunderstorm,218
2013-10-5,77,68,60,66,63,59,94,87,69,30.13,30.09,30.03,10,7,0,10,5,,0.00,5,Thunderstorm,182
2013-10-6,78,71,64,66,62,55,94,75,57,30.03,29.92,29.78,10,10,5,18,8,26,0.01,3,,166
2013-10-7,69,58,48,57,46,39,94,72,58,30.13,29.89,29.74,10,10,5,18,12,25,0.66,7,,223
2013-10-8,64,52,41,46,41,37,93,70,40,30.33,30.27,30.14,10,9,0,7,5,,0.00,0,,20
2013-10-9,66,52,37,43,38,34,93,65,35,30.39,30.32,30.29,10,9,0,10,5,,0.00,0,,81
2013-10-10,69,54,39,43,37,32,87,61,28,30.28,30.21,30.14,10,10,10,8,4,,0.00,0,,55
2013-10-11,71,58,44,46,40,32,87,60,31,30.16,30.13,30.10,10,10,10,8,3,,0.00,4,,46
2013-10-12,73,58,44,57,47,37,81,66,50,30.20,30.16,30.12,10,10,10,10,5,,0.00,2,,93
2013-10-13,64,60,57,57,53,48,94,76,63,30.31,30.27,30.20,10,9,2,13,7,16,0.03,7,,111
2013-10-14,64,55,46,55,48,39,94,76,56,30.37,30.31,30.27,10,9,2,12,5,,0.04,6,,8
2013-10-15,68,56,44,55,51,39,93,78,64,30.27,30.14,30.00,10,10,10,12,6,20,0.00,4,,116
2013-10-16,62,56,51,57,53,46,94,85,72,30.00,29.94,29.86,10,9,4,17,10,26,0.51,6,,189
2013-10-17,59,52,44,50,45,41,93,84,63,29.94,29.87,29.74,10,8,0,15,5,22,0.36,6,,224
2013-10-18,59,52,44,43,39,36,87,66,44,30.00,29.95,29.86,10,10,5,16,11,22,0.03,4,,228
2013-10-19,53,47,41,45,38,36,87,74,58,29.96,29.85,29.71,10,10,7,16,9,24,0.08,4,,200
2013-10-20,55,45,35,37,35,32,93,71,47,30.03,29.96,29.90,10,10,10,20,10,26,0.00,3,,210
2013-10-21,60,50,39,45,35,34,81,56,36,30.04,29.96,29.86,10,10,10,20,11,26,0.00,2,,187
2013-10-22,51,44,37,45,32,25,93,67,43,29.93,29.88,29.84,10,10,6,16,8,22,0.21,4,,248
2013-10-23,42,38,33,36,31,27,87,79,65,29.88,29.80,29.75,10,10,4,14,5,21,0.03,7,,260
2013-10-24,41,36,32,32,29,27,87,80,61,30.09,29.98,29.88,10,9,2,18,10,25,0.04,6,,244
2013-10-25,46,39,32,32,29,25,87,72,49,30.27,30.21,30.09,10,10,10,16,9,24,0.00,6,,248
2013-10-26,42,37,32,32,25,21,80,61,42,30.20,29.99,29.86,10,10,10,24,11,37,0.00,4,,211
2013-10-27,44,38,32,36,30,25,87,72,53,30.09,30.03,29.93,10,10,7,15,7,20,0.00,5,,235
2013-10-28,53,42,30,36,31,25,87,68,47,30.32,30.21,30.09,10,10,10,9,6,,0.00,3,,249
2013-10-29,55,42,30,37,32,27,93,69,44,30.40,30.34,30.28,10,9,0,8,4,,0.00,1,,28
2013-10-30,64,48,33,45,36,30,87,63,37,30.27,30.19,30.12,10,10,7,10,4,,0.00,1,,137
2013-10-31,64,58,51,57,53,45,94,85,68,30.11,29.84,29.46,10,9,4,24,12,33,0.60,8,,174